KE7PBG Weather Reports


time (UTC)temp
C
wind
direction
speed
KPH
gust
KPH
rain 1hr
cm
rain 24hr
cm
rain mn
cm
humidity
%
barometer
mb
20260507080021 10 240 1.6 6.4 0.00 0.00 0.00 83 1015.2
20260507074522 10 240 0.0 0.0 0.00 0.00 0.00 82 1015.2
20260507073025 10 240 0.0 0.0 0.00 0.00 0.00 82 1015.1
20260507071528 10 242 0.0 0.0 0.00 0.00 0.00 82 1015.1
20260507070017 11 245 0.0 4.8 0.00 0.00 0.00 81 1015.1
20260507064513 11 246 0.0 6.4 0.00 0.00 0.00 81 1015.1
20260507063009 11 217 1.6 6.4 0.00 0.00 0.00 81 1015.1
20260507061513 11 233 4.8 8.0 0.00 0.00 0.00 82 1015.2
20260507060117 11 225 1.6 4.8 0.00 0.00 0.00 83 1015.2
20260507054517 11 209 0.0 8.0 0.00 0.00 0.00 84 1015.1
20260507053017 11 223 3.2 6.4 0.00 0.00 0.00 84 1015.1
20260507051518 11 238 3.2 6.4 0.00 0.00 0.00 84 1015.1
20260507050028 11 244 0.0 6.4 0.00 0.00 0.00 84 1015.1
20260507044523 11 254 4.8 11.3 0.00 0.00 0.00 84 1015.2
20260507043007 11 259 3.2 9.7 0.00 0.00 0.00 84 1015.1
20260507041508 11 255 4.8 11.3 0.00 0.00 0.00 85 1015.0
20260507040008 11 244 0.0 0.0 0.00 0.00 0.00 84 1014.9
20260507034510 12 287 0.0 0.0 0.00 0.00 0.00 83 1014.8
20260507033013 12 252 0.0 0.0 0.00 0.00 0.00 83 1014.7
20260507031512 12 257 0.0 0.0 0.00 0.00 0.00 83 1014.6
20260507030017 12 262 0.0 0.0 0.00 0.00 0.00 83 1014.6
20260507024520 12 279 6.4 14.5 0.00 0.00 0.00 83 1014.4
20260507023057 12 270 4.8 12.9 0.00 0.00 0.00 82 1014.5
20260507021504 12 257 6.4 17.7 0.00 0.00 0.00 82 1014.4
20260507020003 12 284 6.4 17.7 0.00 0.00 0.00 81 1014.5
20260507014509 13 284 4.8 12.9 0.00 0.00 0.00 81 1014.6
20260507013008 13 307 6.4 17.7 0.00 0.00 0.00 82 1014.6
20260507011526 13 280 8.0 16.1 0.00 0.00 0.00 80 1014.6
20260507010013 13 271 3.2 12.9 0.00 0.00 0.00 80 1014.6
20260507004512 13 277 8.0 16.1 0.00 0.00 0.00 80 1014.5
20260507003016 13 263 4.8 14.5 0.00 0.00 0.00 79 1014.6
20260507001602 13 271 6.4 17.7 0.00 0.00 0.00 80 1014.5
20260507000002 13 244 8.0 17.7 0.00 0.00 0.00 79 1014.7
20260506234504 13 262 9.7 16.1 0.00 0.00 0.00 79 1014.8
20260506233002 13 252 9.7 16.1 0.00 0.00 0.00 79 1014.6
20260506231506 13 289 6.4 14.5 0.00 0.00 0.00 80 1014.6
20260506230008 13 304 4.8 14.5 0.00 0.00 0.00 81 1014.7
20260506224506 14 281 4.8 12.9 0.00 0.00 0.00 80 1014.7
20260506223017 14 247 4.8 17.7 0.00 0.00 0.00 80 1014.8
20260506221512 14 267 6.4 12.9 0.00 0.00 0.00 80 1014.9
20260506220054 13 287 6.4 16.1 0.00 0.00 0.00 79 1015.0
20260506214559 14 248 6.4 19.3 0.00 0.00 0.00 79 1014.9
20260506213101 14 294 8.0 19.3 0.00 0.00 0.00 80 1014.9
20260506211503 14 302 6.4 12.9 0.00 0.00 0.00 81 1014.8
20260506204507 13 279 8.0 16.1 0.00 0.00 0.00 79 1014.9
20260506203007 13 275 8.0 19.3 0.00 0.00 0.00 78 1014.7
20260506201509 14 317 6.4 19.3 0.00 0.00 0.00 78 1014.6
20260506200011 14 246 4.8 16.1 0.00 0.00 0.00 77 1014.5
20260506194555 14 211 4.8 16.1 0.00 0.00 0.00 78 1014.5
20260506193056 13 301 6.4 14.5 0.00 0.00 0.00 78 1014.5
20260506191558 13 268 3.2 12.9 0.00 0.00 0.00 80 1014.5
20260506184501 13 285 4.8 14.5 0.00 0.00 0.00 80 1014.5
20260506183000 13 316 8.0 16.1 0.00 0.00 0.00 80 1014.4
20260506181502 13 252 4.8 12.9 0.00 0.00 0.00 80 1014.3
20260506180012 13 232 6.4 12.9 0.00 0.00 0.00 80 1014.1
20260506174506 13 290 6.4 14.5 0.00 0.00 0.00 80 1014.2
20260506173122 12 271 3.2 9.7 0.00 0.00 0.00 82 1014.1
20260506171601 12 253 3.2 12.9 0.00 0.00 0.00 82 1014.1
20260506170051 12 280 8.0 16.1 0.00 0.00 0.00 82 1014.3
20260506164601 12 281 6.4 16.1 0.00 0.00 0.00 82 1014.2
20260506163105 12 294 4.8 14.5 0.00 0.00 0.00 83 1014.2
20260506161641 12 290 3.2 12.9 0.00 0.00 0.00 85 1013.7
20260506160111 12 276 3.2 8.0 0.00 0.00 0.00 86 1013.6
20260506154502 12 284 3.2 8.0 0.00 0.00 0.00 87 1013.5
20260506153051 11 269 1.6 6.4 0.00 0.00 0.00 88 1013.5
20260506151549 11 254 0.0 6.4 0.00 0.00 0.00 88 1013.6
20260506150048 11 286 3.2 9.7 0.00 0.00 0.00 89 1013.6
20260506144554 11 215 1.6 8.0 0.00 0.00 0.00 89 1013.5
20260506143053 11 225 1.6 4.8 0.00 0.00 0.00 89 1013.4
20260506141555 11 215 0.0 0.0 0.00 0.00 0.00 89 1013.1
20260506140059 11 234 0.0 0.0 0.00 0.00 0.00 89 1013.2
20260506134557 11 244 0.0 4.8 0.00 0.00 0.00 89 1013.2
20260506133041 10 290 0.0 8.0 0.00 0.00 0.00 89 1013.1
20260506131530 10 254 0.0 0.0 0.00 0.00 0.00 89 1013.0
20260506130029 11 254 1.6 4.8 0.00 0.00 0.00 89 1013.1
20260506124532 11 240 3.2 11.3 0.00 0.00 0.00 89 1012.9
20260506123037 11 282 3.2 8.0 0.00 0.00 0.00 88 1012.8
20260506121536 11 290 3.2 8.0 0.00 0.00 0.00 88 1012.8
20260506120023 11 239 3.2 6.4 0.00 0.00 0.00 88 1012.7
20260506114530 11 254 3.2 9.7 0.00 0.00 0.00 88 1012.5
20260506113027 11 248 3.2 6.4 0.00 0.00 0.00 88 1012.3
20260506111534 11 248 1.6 6.4 0.00 0.00 0.00 88 1012.4
20260506110040 11 242 3.2 8.0 0.00 0.00 0.00 88 1012.3
20260506104546 11 275 3.2 6.4 0.00 0.00 0.00 88 1012.3
20260506103029 11 244 3.2 6.4 0.00 0.00 0.00 88 1012.2
20260506101540 11 256 3.2 6.4 0.00 0.00 0.00 88 1012.0
20260506100037 11 249 3.2 8.0 0.00 0.00 0.00 88 1012.0
20260506094533 11 252 3.2 11.3 0.00 0.00 0.00 88 1011.9
20260506093021 11 279 4.8 11.3 0.00 0.00 0.00 87 1011.8
20260506091521 11 273 4.8 12.9 0.00 0.00 0.00 87 1011.7
20260506090026 11 277 8.0 14.5 0.00 0.00 0.00 87 1011.8
20260506084531 11 231 4.8 12.9 0.00 0.00 0.00 87 1011.7
20260506083033 11 259 3.2 11.3 0.00 0.00 0.00 86 1011.3
20260506081514 11 240 4.8 14.5 0.00 0.00 0.00 86 1011.3